Theta_e
308 308 308 309 309 308 308 309 309 309 309 309 309 310 310 310 310 310 310 311 310 311 311 311 311 311 311 311 311 311 312 312 312 314 317 318 317 318 318 317 315 313 313 314 315 315 316 316 316 315 317 320 320 323 321 322 328 334 336 327 326 330 328 330 323 317 319 319 319 318 317 316 316 316 317 317 317 318 318 319 317 315 316 315 316 315 316 319
309 309 310 310 309 309 309 309 309 309 309 310 310 310 311 311 311 311 311 312 312 312 312 312 312 313 313 313 313 312 312 311 314 318 319 319 319 320 318 315 314 313 313 315 316 315 317 317 315 316 321 322 322 322 322 323 326 331 332 327 331 334 330 326 319 317 317 317 319 319 317 317 316 315 316 316 317 318 317 318 316 316 316 315 314 313 316 319
309 309 310 310 310 310 309 310 310 310 311 311 311 311 312 312 313 313 313 313 313 313 313 314 314 314 314 315 315 314 313 314 319 322 319 318 319 318 316 314 314 314 313 314 316 315 316 317 314 316 321 321 322 324 324 323 324 330 328 326 334 334 326 322 319 317 316 317 319 319 318 318 318 316 316 316 317 318 317 318 317 317 317 316 316 313 316 319
310 309 310 310 310 311 310 311 311 312 312 312 312 313 313 313 313 313 313 314 313 313 313 313 313 313 313 314 315 314 314 317 322 321 315 315 315 315 315 314 314 313 314 315 316 316 316 316 314 317 319 319 324 325 326 325 324 327 325 327 335 328 321 322 321 318 318 319 319 320 320 319 318 316 315 316 317 317 317 318 317 318 316 316 317 314 315 317
310 310 311 311 311 312 311 312 312 313 313 313 313 313 313 313 313 313 313 313 312 313 312 312 312 312 312 312 315 316 316 317 319 317 314 315 315 314 315 314 314 313 314 316 317 316 316 315 314 317 318 319 322 321 325 327 322 323 323 326 329 324 321 322 320 319 320 320 320 320 320 318 318 316 315 316 316 316 316 317 317 317 317 316 316 315 315 317
311 310 311 312 312 313 313 314 313 314 314 314 313 313 313 313 313 313 313 314 314 314 314 314 313 313 312 311 314 318 317 315 317 317 315 314 314 315 315 314 314 313 315 316 316 315 316 315 314 318 319 318 320 318 320 322 320 322 323 322 322 321 319 318 317 318 318 318 319 319 319 318 317 317 316 315 316 315 314 315 316 316 315 314 313 315 317 320
312 311 312 313 314 314 314 314 314 314 314 314 314 314 314 314 315 316 317 317 317 317 317 317 316 314 312 311 316 321 319 317 318 319 317 315 315 315 315 315 314 314 316 316 315 315 317 316 315 318 318 317 319 318 317 317 318 322 322 323 321 320 319 318 317 317 317 318 318 319 318 318 318 318 317 316 316 315 314 314 315 314 312 312 313 315 317 319
313 312 314 314 314 315 315 315 315 314 315 316 315 315 316 317 318 319 319 319 320 320 319 319 317 315 312 313 322 325 321 320 318 319 320 318 316 315 315 314 314 314 315 315 315 315 316 317 316 316 316 317 317 317 317 316 318 319 319 322 320 320 319 318 317 317 317 316 317 318 318 318 318 318 317 317 316 315 315 314 314 313 312 314 315 315 316 318
314 314 315 315 315 315 315 316 316 317 318 318 318 318 318 319 320 321 321 321 321 321 320 318 316 314 312 313 320 322 320 320 318 320 321 318 316 314 314 315 314 314 315 315 315 314 315 318 317 316 316 318 317 317 317 316 319 318 316 318 317 316 316 316 316 315 315 315 314 315 316 317 316 317 317 317 317 316 315 314 315 314 314 315 315 316 315 318
315 315 316 316 315 316 317 318 318 319 320 320 320 320 321 321 321 321 322 321 321 321 319 316 315 314 311 313 319 319 319 320 320 320 318 316 315 313 314 316 315 314 315 316 315 314 316 317 317 317 318 318 316 316 316 314 316 317 316 316 316 316 315 315 315 314 314 314 313 313 314 314 315 316 316 316 317 316 315 315 315 314 315 315 315 316 315 316
315 316 316 316 317 318 319 319 320 321 321 321 321 321 322 322 322 321 321 321 320 319 317 315 313 313 314 317 321 320 318 319 319 319 317 314 314 314 315 317 317 315 315 316 316 316 316 316 316 316 317 315 314 315 316 314 314 315 315 315 316 316 315 314 314 314 313 313 314 314 313 313 314 316 316 315 315 315 314 314 314 313 315 315 315 317 318 317
315 316 317 317 318 320 320 321 322 321 321 321 321 321 321 321 322 321 321 320 319 317 315 315 313 313 317 320 321 319 317 317 317 316 316 315 316 315 315 318 318 316 316 316 317 316 316 316 316 317 316 315 315 315 314 314 313 315 315 315 317 315 315 315 314 313 313 313 316 314 314 315 315 316 316 315 315 314 314 315 314 314 314 314 316 318 319 315
316 316 317 318 320 321 321 322 322 321 321 321 320 320 319 320 321 321 321 319 317 316 314 315 313 312 318 322 320 317 317 318 317 316 316 317 317 316 317 318 318 316 317 317 316 316 315 316 316 317 316 316 316 314 314 314 314 315 314 314 316 316 316 316 314 315 313 313 316 314 316 319 318 316 316 314 314 314 315 317 316 315 314 314 317 318 315 311
316 316 317 319 320 321 322 322 322 321 320 321 320 319 319 319 320 320 320 318 316 315 314 314 312 313 319 322 318 316 317 318 318 317 316 316 316 316 316 317 317 316 316 316 316 315 314 315 315 315 315 316 317 315 314 314 314 314 313 316 317 316 320 319 315 316 315 313 315 314 317 320 319 318 317 315 315 315 316 317 317 315 314 315 317 316 312 311
316 316 317 319 320 322 323 322 321 321 320 320 319 319 319 319 319 320 318 316 314 313 313 312 312 316 320 320 316 315 316 317 317 317 316 316 317 316 315 316 317 316 316 315 315 314 314 314 315 316 316 316 315 315 316 317 318 315 314 321 321 317 321 320 316 316 315 314 313 314 317 318 317 317 317 317 317 317 317 317 316 315 314 314 314 312 311 311
316 316 317 319 321 322 323 322 321 321 320 320 319 319 319 319 319 319 317 314 312 312 315 316 315 317 319 317 316 314 314 315 316 317 317 316 317 316 315 315 315 314 315 314 314 314 313 314 315 316 316 316 315 315 318 320 322 320 316 320 322 319 318 319 319 319 316 315 313 313 317 317 317 318 319 319 318 317 317 315 314 314 314 312 311 311 310 309
316 316 318 319 321 321 322 322 322 321 321 320 319 319 319 320 319 318 315 312 311 312 316 318 316 315 316 315 316 316 315 315 316 317 316 315 317 316 314 314 313 313 313 312 313 312 312 314 314 315 315 315 316 315 319 321 323 324 320 318 321 320 317 319 323 320 317 316 315 314 314 315 317 318 318 317 316 316 315 314 314 315 313 311 310 310 309 308
316 316 318 320 320 320 322 323 322 321 320 319 319 320 320 321 319 316 315 315 314 314 316 315 314 318 320 316 316 316 316 316 316 315 314 314 316 315 314 314 313 313 312 313 314 312 313 314 315 316 315 314 314 314 318 322 321 324 323 321 322 321 318 319 321 320 319 318 318 318 316 315 315 315 315 315 315 314 314 314 315 315 312 310 311 309 308 307
316 317 318 319 319 319 321 322 322 321 320 319 320 320 321 322 319 315 315 317 320 322 323 317 317 323 323 319 317 316 315 315 314 313 312 313 315 315 314 314 314 313 314 317 317 313 314 316 315 317 318 316 314 313 316 319 319 320 321 320 321 320 320 320 319 320 319 318 320 320 319 318 317 317 317 316 315 315 314 314 315 313 311 311 310 308 307 306
316 318 319 319 319 319 321 321 321 321 320 320 321 321 324 326 325 321 318 318 320 323 323 318 317 319 319 319 317 315 315 314 314 315 313 312 314 314 314 313 315 315 316 321 321 315 315 319 318 319 320 318 315 314 313 314 315 316 317 319 320 321 321 320 319 321 319 318 321 321 319 319 319 319 318 316 316 316 315 315 314 312 311 310 309 307 306 305
317 318 319 320 320 320 321 321 321 321 320 321 321 321 321 322 325 324 321 320 318 317 318 317 316 317 317 318 317 315 317 316 314 315 314 312 313 315 315 315 316 317 317 321 320 315 315 319 320 319 319 318 316 315 314 314 315 316 318 320 322 324 322 320 319 319 317 317 322 323 319 319 319 318 317 316 315 314 315 314 312 311 310 308 307 306 305 305
317 319 320 321 321 320 321 320 321 321 321 321 319 318 316 314 315 315 316 321 319 314 316 317 317 317 318 318 317 316 319 318 316 316 314 313 313 316 316 315 317 320 319 319 319 317 316 319 321 319 317 317 316 316 316 317 318 319 322 321 323 324 322 323 322 319 316 317 323 324 319 318 318 317 316 315 314 312 313 313 311 309 309 307 306 305 304 304
318 319 320 321 320 320 321 320 320 322 321 319 318 317 314 312 312 310 312 319 320 316 317 319 319 319 319 318 316 315 319 319 320 319 315 313 314 316 316 315 317 320 319 319 319 320 320 321 320 316 316 316 316 317 318 319 320 322 322 321 323 323 321 325 326 321 318 317 321 321 319 320 318 317 317 314 312 311 310 310 309 308 307 306 305 304 304 303
319 320 321 321 320 321 322 319 320 323 321 319 318 317 315 313 311 311 314 319 321 319 319 319 319 319 319 316 314 316 319 319 319 319 314 313 315 316 317 316 317 318 318 318 319 320 322 321 318 316 317 318 318 319 320 320 322 326 326 323 323 323 321 322 323 322 321 323 324 319 323 329 322 318 318 313 310 311 309 308 308 307 306 305 305 304 303 303
319 320 321 320 321 322 321 320 321 322 321 319 318 318 317 314 311 311 316 321 323 322 319 316 318 318 314 312 314 316 317 317 317 315 313 313 315 316 317 316 316 318 319 318 318 319 320 320 320 319 320 320 321 322 323 324 324 327 329 326 323 323 323 324 325 325 324 327 326 318 325 336 328 321 321 314 310 311 309 308 307 306 306 305 304 303 303 302
318 320 321 321 322 323 322 322 322 322 322 320 318 319 317 315 313 311 315 323 325 325 321 317 318 316 312 312 314 315 316 317 313 312 313 313 313 314 316 318 317 319 320 320 320 321 320 321 321 322 323 323 322 324 326 325 323 324 328 327 326 324 322 325 325 324 325 327 324 317 323 330 324 321 323 316 310 310 309 308 307 306 305 304 303 303 302 302
318 319 320 321 321 322 322 323 323 322 323 321 319 319 318 316 313 311 318 327 328 326 321 317 316 315 313 312 312 315 321 318 312 311 312 312 312 312 315 319 319 319 319 319 323 326 322 319 320 321 324 324 323 325 327 325 324 327 326 325 327 323 321 323 319 320 326 324 321 319 319 322 321 321 319 315 311 311 309 308 307 305 304 303 303 302 302 301
319 319 320 320 321 322 322 322 322 323 323 322 320 320 318 315 312 313 322 332 331 323 319 315 312 312 311 310 311 315 316 314 314 313 310 310 312 312 315 318 318 318 317 317 325 330 323 320 323 323 323 325 328 329 328 324 325 329 324 320 322 319 319 321 318 321 323 320 322 324 318 319 326 326 317 313 313 311 309 308 306 305 304 303 302 302 301 301
320 320 321 321 322 322 321 321 321 322 322 321 320 321 317 314 313 317 325 330 327 320 316 313 312 312 312 311 312 313 309 310 314 313 310 311 311 311 314 315 314 315 316 318 324 327 322 320 323 326 324 325 328 329 328 325 323 324 320 319 323 321 319 319 317 320 320 319 324 326 320 319 329 331 318 314 316 312 309 308 305 305 304 303 302 302 301 301
320 321 321 321 321 321 321 320 320 321 321 320 321 319 316 316 319 324 328 327 323 319 315 314 315 314 313 312 313 313 310 311 312 311 312 313 311 311 312 311 312 315 321 323 323 322 319 315 317 322 322 323 325 323 322 323 321 320 319 322 326 326 323 321 322 322 319 323 329 326 322 319 326 332 319 314 317 311 308 306 304 304 303 302 302 301 301 300
320 321 321 320 320 320 320 321 320 320 320 320 319 317 317 321 325 327 329 323 320 321 316 315 317 313 313 317 317 313 311 313 313 313 314 314 313 313 313 313 314 318 325 326 322 319 317 315 317 322 321 320 321 319 319 321 320 320 323 324 324 327 327 322 324 325 321 328 335 328 322 318 324 330 318 312 314 309 307 306 304 303 303 302 301 301 300 300
319 319 319 319 320 320 320 321 320 320 320 319 317 320 324 325 325 326 327 323 325 325 319 319 319 316 318 322 320 316 315 315 313 314 317 318 317 316 317 322 322 321 325 327 325 321 320 321 320 320 318 317 319 320 320 322 321 321 323 320 320 325 328 325 325 325 324 329 332 325 321 320 323 323 313 309 310 308 307 305 303 303 302 302 301 300 300 299
318 318 318 319 320 320 320 320 319 319 319 317 319 325 326 325 325 325 325 326 327 324 321 321 320 320 321 321 322 321 320 319 314 313 318 320 320 318 319 323 324 321 322 324 325 324 325 324 318 316 318 319 320 319 321 325 321 317 319 321 323 324 324 325 325 321 320 324 326 319 316 322 325 315 308 307 306 305 305 303 303 302 301 301 301 300 300 299
317 317 318 319 319 320 319 318 318 318 317 317 323 326 324 323 324 323 323 326 324 321 321 322 321 321 321 321 322 323 323 324 318 315 318 319 320 322 321 320 319 319 320 321 322 322 325 326 322 320 320 319 317 317 325 331 321 315 321 324 325 329 325 323 322 319 320 325 326 319 316 325 328 314 306 305 303 303 303 302 303 302 301 301 300 300 300 299
315 315 316 318 318 319 318 317 318 317 317 319 323 324 323 324 324 324 325 324 323 322 320 320 322 322 323 324 323 322 322 324 321 318 322 322 322 325 325 321 319 318 320 323 323 320 320 324 323 319 317 316 317 318 323 327 322 318 320 320 323 329 326 322 322 321 321 324 325 323 322 321 317 309 304 304 303 303 303 302 302 302 301 301 301 300 300 299
313 312 313 315 316 318 318 317 317 317 318 321 322 323 322 323 325 326 326 322 321 323 321 321 323 323 325 326 324 322 319 320 322 321 324 324 322 324 324 321 319 318 320 323 324 319 317 321 321 316 315 316 318 320 318 320 324 321 319 323 327 326 322 322 324 321 318 320 321 322 322 315 310 308 305 304 304 303 303 302 302 302 302 302 301 301 300 299
311 310 310 311 313 316 317 317 318 317 318 320 322 322 320 321 323 323 322 320 319 320 320 323 324 323 325 325 324 323 319 320 321 321 324 324 320 321 321 318 319 318 319 321 322 320 318 320 321 319 319 317 315 317 317 317 321 321 321 325 325 320 320 322 323 321 319 320 319 318 318 315 315 315 307 304 306 304 303 303 302 302 302 302 302 301 300 299
309 307 308 309 310 313 315 317 317 316 318 320 321 321 321 322 321 319 321 319 318 319 320 323 323 322 323 324 324 322 320 322 322 321 325 323 319 320 318 318 318 317 318 319 320 323 320 319 322 320 319 319 316 317 320 318 317 320 321 322 318 319 324 322 321 323 321 319 320 321 320 318 318 316 307 305 306 305 304 303 303 302 302 302 302 301 300 299
306 309 312 310 309 310 312 315 316 316 319 321 321 320 320 320 319 320 320 318 319 321 321 322 322 320 321 322 322 321 320 322 323 322 322 319 318 319 318 319 318 315 319 321 320 323 323 320 321 319 316 319 319 319 324 322 317 317 319 319 319 320 322 320 320 324 322 318 319 320 320 320 320 315 308 306 305 304 304 304 303 303 302 301 301 301 300 300
307 313 314 309 307 308 310 313 315 317 320 321 320 319 318 318 318 319 318 316 318 320 320 321 321 320 321 320 320 321 320 322 323 321 320 318 318 320 320 323 321 316 319 322 321 322 323 319 321 322 317 318 320 321 324 324 319 317 318 318 318 319 320 318 318 321 321 320 319 318 318 320 317 312 307 305 305 304 304 304 304 303 302 301 301 301 300 299
307 313 313 307 306 307 309 313 315 317 319 318 317 316 315 316 317 317 317 317 317 317 318 320 321 320 320 320 320 319 318 320 320 319 319 318 317 318 318 319 320 317 319 322 322 320 319 319 322 324 320 320 323 321 319 321 321 321 321 320 320 319 318 318 318 319 319 318 318 317 319 320 315 309 307 306 305 305 304 304 305 303 301 300 300 299 298 297
308 312 310 306 305 307 309 313 313 314 316 316 315 315 314 314 315 316 317 317 317 317 316 317 319 320 319 319 319 318 318 319 318 318 318 317 317 317 315 313 316 318 320 322 319 317 318 320 321 321 319 319 321 318 316 317 319 320 321 319 319 317 316 317 318 318 319 317 317 317 319 319 313 309 309 307 307 307 306 306 306 303 300 300 299 298 296 296
307 309 308 304 305 307 309 311 312 312 314 313 312 313 313 313 314 315 316 317 317 317 316 316 317 317 318 318 317 318 319 318 317 317 318 318 319 316 314 313 314 317 320 319 317 318 319 319 319 319 319 318 317 317 318 317 316 318 318 316 317 316 315 316 316 317 318 316 315 316 316 316 313 309 308 307 307 307 306 306 306 302 299 300 298 296 296 296
305 307 307 305 305 308 310 311 312 311 311 311 311 311 311 312 313 314 315 316 317 317 316 316 316 316 317 316 316 317 317 317 317 316 317 321 319 312 312 314 314 314 317 317 318 319 317 316 317 318 318 317 315 315 317 317 317 316 316 315 315 314 314 314 314 315 315 314 314 315 314 316 315 310 307 306 306 307 306 305 304 302 300 299 298 297 297 297
304 306 307 306 305 307 310 311 311 311 311 310 311 311 310 311 312 313 314 314 316 317 316 317 317 317 317 316 316 316 316 316 317 317 318 320 316 310 310 313 313 315 316 314 317 318 315 315 317 316 316 315 313 313 314 316 316 314 314 315 314 313 313 313 313 314 314 314 313 313 313 314 314 311 308 306 305 307 306 303 302 302 301 299 299 299 299 299
304 305 306 306 306 306 308 308 309 310 310 310 310 310 310 310 310 312 314 314 314 315 315 317 317 316 316 316 315 315 316 316 316 316 318 318 315 310 309 310 311 313 313 311 314 317 315 314 315 315 314 313 312 312 312 312 312 311 311 312 312 312 312 312 312 312 312 311 309 309 310 310 309 308 307 306 306 307 306 303 301 301 301 300 300 300 300 299
302 304 306 307 307 307 307 308 308 309 309 310 310 310 310 310 309 310 313 314 314 315 314 315 315 315 315 316 315 315 315 315 314 314 315 316 313 308 308 309 309 309 310 310 312 315 314 312 313 313 313 313 312 311 310 309 310 310 310 310 309 309 309 309 310 310 309 309 308 308 307 306 305 304 303 304 304 305 306 305 302 300 301 301 301 300 300 298
300 302 303 304 306 307 308 308 308 308 308 309 310 309 310 311 310 310 311 313 314 314 314 314 314 314 315 315 314 314 315 314 313 312 313 314 313 309 307 308 307 308 309 309 310 313 313 312 313 312 311 312 310 308 308 308 308 308 308 308 307 306 305 305 306 307 307 307 307 306 305 304 304 303 302 303 302 302 304 304 301 299 299 299 299 298 297 296
299 300 300 300 302 304 306 307 307 307 307 307 309 309 309 310 310 309 311 313 314 313 313 313 313 313 314 313 312 313 313 313 313 312 312 313 312 311 310 309 307 306 307 307 307 310 311 310 309 308 309 309 307 306 306 306 305 304 304 304 304 304 303 303 303 304 305 305 305 304 305 304 303 302 302 302 301 301 300 298 297 296 296 297 296 294 294 294
297 299 300 300 301 302 303 305 307 307 306 306 307 307 307 308 309 308 310 313 314 314 312 312 312 313 313 312 311 311 311 312 312 311 312 312 311 310 310 310 307 304 305 306 305 306 308 309 305 304 307 307 305 304 304 304 303 302 301 301 301 300 301 301 301 301 302 302 302 302 303 302 301 301 300 298 299 298 296 295 295 294 295 295 294 293 294 294
296 297 298 299 301 302 302 304 306 307 306 306 306 306 306 307 307 307 308 310 311 312 312 311 312 312 311 310 310 310 309 310 309 307 307 308 308 308 309 309 306 304 305 305 305 305 307 307 305 304 306 306 302 301 302 302 301 300 300 299 298 298 298 298 299 300 300 300 300 300 300 299 301 301 298 296 296 296 295 294 293 293 294 295 293 293 295 295
295 296 297 297 298 300 301 304 306 307 306 306 305 305 305 306 307 307 307 307 307 308 310 311 310 309 309 309 309 308 306 305 305 303 303 305 304 304 306 306 306 306 305 304 305 306 306 306 306 306 305 303 301 300 301 301 300 299 298 298 297 297 298 298 298 299 299 299 299 299 299 300 302 302 298 295 295 295 294 294 293 293 293 294 294 294 295 296
Wind_Speed
4 4 4 4 4 4 4 5 5 6 6 6 7 7 8 9 9 9 10 10 10 11 12 12 12 12 13 13 15 16 18 19 19 16 11 13 10 7 8 7 5 3 5 7 8 6 4 3 5 5 3 1 1 0 1 0 2 4 3 3 2 3 3 5 3 2 1 3 5 4 0 4 2 5 2 3 3 4 6 8 7 5 7 11 19 21 14 9
4 4 4 4 4 4 4 5 6 6 6 6 7 7 8 8 9 10 10 10 10 11 11 12 12 12 12 13 14 15 17 19 18 15 12 9 4 4 5 3 2 4 7 10 10 8 7 4 7 7 4 1 1 1 0 1 2 3 3 2 3 5 5 4 3 5 3 4 6 5 3 5 1 4 2 3 7 6 6 9 7 9 10 11 18 15 9 13
4 3 4 3 3 4 4 5 5 6 6 7 7 7 8 8 9 10 10 10 11 11 11 12 12 12 12 11 12 13 15 16 11 9 4 3 4 3 2 2 1 3 7 9 8 8 8 5 7 7 3 1 2 1 1 1 1 2 3 2 6 6 5 7 6 6 5 4 5 5 3 4 5 3 1 4 9 7 7 9 7 11 12 9 11 7 8 15
4 3 3 3 3 4 4 5 5 6 7 7 8 8 8 9 10 10 11 11 12 12 12 12 12 12 11 10 10 10 11 9 4 3 4 8 6 4 5 3 3 4 7 8 6 7 8 5 5 7 3 1 2 2 2 3 2 1 4 5 7 5 4 8 7 8 7 4 4 5 5 6 6 2 2 5 8 8 8 9 9 13 15 10 9 8 7 12
4 3 3 3 4 4 4 5 5 6 7 8 9 9 9 10 10 11 12 12 12 13 12 12 12 11 10 9 8 7 6 4 2 3 6 7 7 5 4 3 2 5 9 7 4 5 6 4 1 2 2 1 2 2 3 6 4 2 4 7 7 4 4 7 6 7 6 5 5 6 6 5 4 2 3 4 7 10 9 8 10 13 14 11 9 10 7 8
6 5 4 4 4 5 5 5 6 7 8 8 9 10 10 10 11 12 12 13 13 13 13 13 11 11 9 6 4 3 1 1 3 4 5 5 5 4 2 1 0 6 10 7 3 2 2 1 2 1 1 1 3 3 6 5 5 3 5 5 7 7 6 6 5 6 6 5 5 4 4 3 4 6 5 6 11 15 13 10 10 11 14 14 9 8 8 7
7 6 4 4 4 5 5 6 7 7 8 9 10 10 10 11 12 12 13 13 14 14 14 13 12 10 8 3 1 1 1 5 8 5 7 7 5 3 2 2 2 7 11 7 4 3 3 1 1 3 2 2 4 6 6 3 4 6 5 5 7 7 6 5 5 7 6 6 7 4 5 4 5 7 3 6 13 16 16 12 10 12 15 14 10 9 9 10
7 5 4 4 4 5 5 6 7 8 9 9 10 11 11 11 12 13 14 14 14 14 14 13 11 9 5 0 1 2 1 8 11 8 9 10 7 5 4 4 4 9 11 8 6 4 4 3 4 4 2 3 3 3 4 4 1 5 5 4 3 4 5 7 6 7 8 7 7 6 9 9 8 5 5 11 16 17 17 13 11 11 11 12 11 11 9 9
7 5 4 4 4 4 5 6 7 7 8 9 10 10 11 11 12 13 14 14 14 14 13 12 10 6 3 1 3 2 4 9 11 8 8 8 7 6 5 4 6 10 9 8 9 5 3 4 5 4 3 3 2 3 2 3 3 4 2 3 3 4 6 7 7 9 10 7 6 6 11 12 6 3 8 13 16 15 13 11 11 9 8 10 10 11 9 8
6 4 3 4 4 4 5 6 6 7 8 9 10 10 11 11 12 13 14 14 14 14 13 10 8 4 3 1 5 0 5 6 8 8 7 6 5 4 5 5 6 10 8 6 8 6 3 4 4 4 4 2 2 3 2 1 4 2 4 5 5 6 7 6 7 13 11 8 9 8 12 14 3 2 6 10 13 11 9 10 10 8 8 8 8 9 6 5
6 4 4 4 4 5 5 6 6 7 9 10 11 11 12 13 13 14 15 15 15 14 13 9 6 2 4 3 4 3 4 4 6 5 3 3 3 4 6 5 5 9 8 5 5 4 1 2 2 3 2 1 1 4 5 2 2 3 3 6 8 8 8 8 10 14 9 5 9 9 10 13 1 4 10 14 13 9 8 12 12 9 9 7 5 7 6 6
6 4 4 4 4 5 5 6 7 8 10 11 12 13 13 14 14 15 15 15 15 14 12 9 4 4 4 2 5 8 6 5 6 3 2 2 3 4 6 6 5 8 8 4 2 2 3 2 4 3 2 0 1 4 3 2 2 4 3 5 9 7 8 13 11 12 7 4 6 8 3 9 4 8 13 14 13 9 9 12 12 10 8 5 5 6 6 7
6 5 4 4 4 5 6 7 8 9 10 12 14 14 15 15 15 16 16 15 14 13 11 7 3 6 3 1 6 11 11 10 7 4 3 3 3 4 6 8 7 7 7 4 1 4 4 2 5 3 2 2 1 3 1 1 3 5 3 0 5 6 7 12 8 7 6 4 6 9 1 6 9 13 13 12 9 6 8 9 9 9 5 5 5 6 7 11
7 5 5 5 5 5 6 7 8 9 11 13 14 15 15 15 15 16 15 14 12 11 10 5 3 6 3 3 5 7 12 11 8 6 5 5 4 4 6 8 8 7 5 4 1 2 3 4 5 3 0 2 2 4 4 3 2 4 4 0 2 2 6 10 6 4 3 3 5 9 4 6 9 12 11 10 7 5 7 9 9 8 5 5 6 7 10 11
7 6 5 5 5 6 6 6 8 10 11 13 14 15 16 15 15 15 13 11 10 8 5 1 5 6 1 6 7 4 8 8 6 7 5 6 5 3 5 7 7 6 5 4 2 0 2 3 5 2 2 1 0 3 4 4 3 2 2 3 2 4 5 10 9 5 4 3 1 6 4 5 8 11 11 10 8 7 9 12 10 7 7 7 6 8 9 8
7 6 5 6 5 6 6 6 8 10 12 14 14 15 15 15 15 13 10 8 6 3 1 2 5 4 1 4 2 1 5 5 7 8 6 6 5 4 6 6 4 4 3 2 1 1 2 4 2 2 1 1 1 2 3 4 4 2 3 4 4 4 3 6 7 4 4 3 2 2 3 4 5 8 10 10 9 8 10 13 10 7 8 7 8 9 8 8
7 6 6 6 5 6 6 6 8 10 12 14 15 14 14 15 14 10 6 4 3 1 1 1 1 2 2 3 1 2 4 5 8 9 7 7 6 8 9 5 3 4 3 2 2 2 2 3 1 1 1 1 2 4 3 2 4 3 2 4 5 5 4 3 6 5 3 5 2 5 4 6 7 8 10 11 11 10 10 11 10 7 6 8 9 9 9 10
7 6 6 5 5 7 7 7 8 10 13 14 14 15 15 13 10 7 4 2 2 2 2 2 1 1 2 3 2 2 3 5 8 7 7 8 9 10 7 3 4 6 5 3 1 2 1 1 2 1 0 1 2 4 2 5 5 4 4 4 4 5 4 4 5 5 2 1 3 5 6 8 9 9 10 12 12 11 8 6 7 5 8 10 9 10 10 11
7 6 5 4 5 8 8 7 8 10 13 13 12 13 11 7 4 2 2 1 0 0 2 2 3 2 3 3 3 3 5 7 8 5 7 9 9 10 6 2 5 5 4 1 1 2 2 2 3 2 2 4 5 7 9 10 8 8 7 5 5 5 5 6 6 5 4 4 5 7 8 7 7 9 10 13 11 6 5 4 3 5 10 9 9 10 9 12
7 5 3 3 6 10 9 7 8 10 11 12 12 10 5 3 3 1 1 1 4 5 3 4 6 4 7 4 4 6 5 7 5 4 8 9 8 7 3 1 4 2 2 4 3 2 4 3 3 4 6 8 11 12 12 11 8 7 6 6 6 5 5 6 6 6 3 2 6 7 5 6 7 9 12 15 10 7 7 4 6 8 9 8 10 10 10 11
6 4 2 4 7 10 9 7 7 8 9 10 10 6 1 2 1 1 3 3 7 11 9 10 11 10 12 9 5 8 3 2 3 4 8 8 7 6 2 2 4 1 3 4 2 1 3 4 6 8 11 12 13 11 9 8 6 6 6 5 5 5 5 6 6 7 3 1 5 4 5 7 8 10 15 15 10 10 7 5 10 10 10 9 10 10 10 9
7 4 2 4 7 9 9 7 7 7 6 6 6 4 4 2 1 1 1 3 7 11 10 13 14 12 16 15 8 7 3 3 3 3 7 7 5 4 2 3 5 4 3 3 3 1 3 4 9 12 12 10 9 7 7 7 7 6 5 4 4 4 3 5 5 4 3 1 5 5 5 7 9 11 16 14 7 7 7 10 10 10 11 9 9 9 9 9
7 4 3 6 7 8 8 7 6 4 5 5 5 4 3 2 1 2 2 1 6 8 7 8 10 9 10 8 5 6 3 4 4 4 9 9 3 4 4 5 6 4 3 5 5 5 4 6 12 14 9 7 8 7 7 7 6 5 5 4 5 4 1 4 5 4 3 2 3 4 5 6 7 11 11 7 7 9 11 14 12 10 11 10 9 9 9 10
8 6 6 7 7 7 7 8 4 2 4 3 5 4 3 3 1 4 2 1 4 6 6 6 4 2 2 1 4 5 2 3 2 3 11 11 4 3 4 6 7 5 5 8 9 8 7 7 10 9 6 7 8 8 7 6 5 4 5 4 5 5 4 5 4 5 5 4 1 2 5 4 6 10 6 6 10 9 10 13 13 10 9 10 10 10 10 9
10 9 8 8 6 6 8 7 2 2 2 1 2 3 2 2 2 4 1 1 3 5 4 2 1 1 2 2 2 3 1 1 1 2 8 9 3 2 2 3 5 5 6 8 8 8 7 7 5 5 6 6 7 7 6 5 3 4 4 7 8 7 6 4 2 4 4 4 3 3 4 5 5 6 5 4 8 8 7 10 11 8 8 8 9 10 8 8
12 12 11 10 7 5 6 4 1 1 1 3 2 1 1 2 2 3 1 2 3 3 0 1 1 1 2 2 1 3 3 1 3 1 5 3 1 2 2 2 2 4 6 5 3 3 5 7 5 6 8 6 6 6 5 6 3 3 4 5 5 5 3 1 3 3 1 2 4 2 2 6 4 5 7 5 10 7 7 8 8 7 7 7 8 7 7 7
13 14 14 13 10 6 3 1 3 2 0 3 3 1 1 2 2 3 1 2 3 1 2 0 0 2 3 2 1 4 2 2 1 2 2 2 1 1 1 3 2 2 2 1 0 3 5 5 2 3 3 4 5 6 5 7 6 3 5 3 6 5 4 3 2 1 3 2 5 1 4 4 4 6 6 7 11 6 6 7 6 6 7 7 7 6 6 6
12 14 14 14 11 8 7 4 3 3 3 3 2 1 1 2 2 1 2 1 3 1 2 1 1 2 1 1 2 3 1 0 2 1 2 3 1 2 1 3 3 2 3 4 3 6 2 4 4 5 4 3 5 6 5 8 5 6 5 5 6 5 5 3 3 2 3 1 5 5 4 2 5 5 2 9 9 5 6 6 6 6 6 7 7 6 6 6
12 12 11 10 8 9 10 7 4 4 5 4 2 1 1 1 0 2 2 2 1 2 1 1 2 1 1 2 2 1 1 1 2 2 2 2 1 2 1 3 2 2 4 3 5 6 1 4 6 6 4 5 6 5 4 7 4 4 3 4 4 2 2 1 3 3 1 1 4 6 4 3 5 5 1 6 6 6 6 5 5 6 5 6 6 5 5 5
11 10 9 8 8 9 9 9 8 6 5 5 3 2 0 1 2 2 2 2 1 1 0 1 1 1 2 3 0 1 2 0 1 1 2 1 2 3 0 1 2 1 3 3 2 5 2 2 3 4 4 6 4 1 2 5 4 3 5 4 6 4 3 3 2 4 3 2 6 8 8 6 3 4 2 2 4 9 10 7 6 5 6 5 4 5 5 4
11 9 9 10 10 9 7 6 8 8 6 5 3 2 1 2 2 2 4 1 1 1 1 1 1 1 3 3 2 2 2 1 2 2 1 1 3 3 2 1 2 3 3 4 4 4 2 1 2 3 3 4 5 2 2 3 3 5 5 4 4 5 4 4 4 3 2 4 7 7 7 7 5 4 2 4 1 9 11 10 11 8 6 5 4 4 4 4
11 10 11 12 11 11 8 4 6 8 6 5 4 2 3 2 0 3 3 1 1 2 2 1 3 3 3 2 3 3 3 2 3 4 3 3 2 2 2 3 3 2 3 3 2 3 2 3 4 3 2 3 5 2 2 5 4 5 4 4 2 3 3 2 2 0 2 6 6 3 3 4 5 3 3 6 4 6 7 8 11 10 8 6 4 4 4 4
12 10 11 12 12 12 10 6 7 9 8 7 3 3 4 1 3 4 3 2 1 1 1 1 1 1 1 2 2 3 2 2 4 4 3 4 3 3 4 5 5 2 2 4 1 3 3 5 2 0 3 2 7 4 2 2 1 4 4 4 4 2 1 2 3 2 3 5 5 2 2 1 4 1 4 5 5 6 8 9 8 8 8 6 5 4 5 5
12 11 12 14 13 13 10 7 9 11 10 7 3 3 3 4 3 3 5 4 1 1 2 2 2 2 2 0 3 2 1 2 4 4 3 4 3 3 4 5 5 3 2 3 2 2 2 5 3 5 2 3 8 6 6 4 3 5 5 5 5 4 4 3 4 3 3 4 5 3 1 2 3 1 3 4 5 6 8 8 7 7 6 5 5 5 5 5
11 11 12 12 12 12 10 10 11 12 10 5 3 2 5 5 2 2 4 4 1 1 2 2 3 2 2 2 2 1 2 2 1 3 2 4 4 4 4 4 7 6 3 2 2 3 4 5 5 3 1 6 6 5 5 6 1 3 3 4 2 4 5 2 4 5 3 3 4 2 2 1 2 2 3 4 5 7 7 6 7 6 5 5 5 4 4 4
9 8 8 9 11 12 12 12 11 11 8 4 2 4 6 4 3 3 2 1 1 2 0 2 2 2 2 2 3 3 1 1 1 1 1 3 4 5 5 3 5 8 6 4 3 2 2 5 3 1 1 4 6 3 3 4 1 1 3 3 4 3 5 2 3 1 2 2 4 3 2 1 2 1 2 4 5 6 5 5 6 5 5 5 4 4 4 4
6 4 4 6 10 12 12 12 10 8 4 3 4 6 4 3 3 3 1 0 1 2 2 1 1 2 3 1 2 3 1 1 1 1 2 3 3 4 5 2 1 5 6 4 3 3 3 4 4 2 2 3 4 2 1 1 3 4 2 4 3 1 3 3 0 2 1 4 4 2 4 3 2 2 1 3 4 5 5 5 5 5 5 4 4 4 4 4
4 1 2 6 10 11 12 13 11 7 3 3 7 8 3 2 3 3 2 1 2 1 2 2 3 2 3 2 3 2 2 1 1 2 2 2 3 4 5 2 1 1 2 3 2 2 2 2 6 2 4 2 2 3 2 5 2 4 3 3 1 1 2 1 1 2 3 5 4 5 6 5 4 4 5 7 8 8 7 5 5 5 5 5 4 5 5 4
5 2 2 6 9 10 13 13 10 5 3 5 9 8 3 3 4 4 4 1 1 2 2 4 3 2 2 3 3 3 3 3 3 2 1 2 4 2 1 2 1 3 3 4 4 2 1 1 5 3 1 1 3 3 2 4 4 2 1 2 1 3 3 2 2 3 3 4 4 5 6 4 4 5 10 12 11 10 9 6 6 7 6 6 5 5 5 4
4 2 1 4 9 11 14 11 5 3 4 4 6 4 1 1 4 6 6 3 1 2 3 4 4 4 4 3 3 3 3 4 4 3 2 3 4 2 1 1 1 0 3 5 3 1 2 2 4 4 3 1 1 1 5 4 1 2 1 1 1 1 1 2 2 3 3 4 4 5 6 5 3 3 10 13 11 10 10 8 7 7 7 6 6 5 5 4
3 0 2 6 11 15 15 7 2 4 3 3 3 2 1 2 2 4 6 5 4 3 2 3 5 6 5 5 4 3 2 4 4 3 3 4 4 3 1 1 1 2 2 5 2 1 0 2 3 3 3 1 4 4 5 5 4 4 3 3 2 2 1 2 4 2 2 3 3 4 6 5 2 1 5 9 9 9 9 9 8 7 7 7 5 5 5 4
2 0 2 8 16 19 13 4 3 3 3 4 3 2 3 2 2 3 4 5 5 4 3 4 6 6 5 5 5 4 4 4 4 4 4 4 5 5 3 1 1 1 3 2 1 1 2 3 1 3 4 5 6 4 3 5 6 5 1 1 3 3 3 3 5 2 0 1 1 1 3 2 1 2 2 6 7 7 8 8 7 6 6 6 5 5 5 4
1 1 3 12 20 17 8 3 4 4 4 3 1 1 3 2 3 4 4 5 5 4 4 5 6 6 7 6 5 5 5 4 5 7 5 4 5 3 1 2 2 2 3 2 1 1 2 3 1 3 4 3 4 4 4 3 4 3 1 1 2 3 3 4 4 2 0 3 2 1 3 2 1 2 2 4 4 5 6 6 6 6 5 6 6 5 5 5
2 1 1 11 20 13 4 4 6 6 7 5 2 4 4 3 5 6 5 6 5 5 5 6 6 6 6 6 6 7 6 4 6 7 6 5 3 0 3 4 2 1 1 1 2 1 0 1 2 0 3 5 4 3 4 4 3 3 1 2 2 3 3 2 1 1 2 5 6 5 4 3 1 1 2 2 3 3 4 4 6 6 6 6 5 5 5 5
1 1 1 7 15 10 3 3 3 4 8 8 7 8 7 5 6 7 7 6 5 5 5 5 5 5 5 5 5 6 7 6 6 4 3 3 1 2 4 5 1 2 0 2 1 3 2 2 3 3 5 7 6 3 1 1 1 1 1 3 3 4 5 2 1 2 3 4 5 5 4 3 3 3 4 3 3 5 6 4 5 5 5 6 5 5 5 4
1 2 1 3 7 6 3 1 1 3 5 5 6 7 9 8 5 4 7 6 6 6 4 3 3 4 4 6 6 7 7 7 5 2 1 2 1 1 1 3 3 2 1 2 3 3 2 1 3 6 8 9 6 3 3 3 1 2 4 5 5 5 5 4 3 4 3 1 3 6 5 4 8 9 5 4 5 6 6 6 6 5 5 6 6 5 5 5
1 2 3 3 3 5 5 3 4 4 2 3 4 4 8 10 6 4 6 6 6 8 5 3 4 6 6 7 7 6 6 5 4 3 3 3 1 2 1 3 3 2 1 2 3 3 3 1 4 6 6 8 5 2 2 3 2 5 6 7 7 6 5 5 5 4 2 1 6 9 6 5 9 12 7 4 5 5 5 6 7 7 6 6 5 5 6 5
2 1 1 2 2 5 7 7 8 7 6 6 4 4 6 8 6 5 5 4 6 8 6 4 6 9 8 7 7 5 5 6 5 4 4 3 2 0 2 2 1 1 3 3 2 4 4 3 4 3 4 7 4 3 3 3 2 4 5 7 9 9 7 5 5 5 5 6 9 10 9 9 11 11 7 4 5 6 6 6 5 6 6 6 5 5 5 5
1 1 3 1 1 3 4 5 9 11 12 9 5 7 9 7 5 5 2 2 4 6 6 6 7 8 8 7 6 4 5 6 5 5 4 4 4 4 1 1 2 1 4 2 1 2 3 2 1 2 3 6 3 3 4 3 1 3 5 8 11 12 8 4 5 8 8 8 10 9 10 12 12 7 5 5 4 4 3 3 5 6 6 6 6 5 5 4
1 0 1 2 2 2 2 3 8 10 10 10 9 9 8 7 9 7 2 3 4 3 5 7 6 5 6 7 7 6 7 6 5 5 4 4 4 3 3 2 1 1 3 2 0 1 1 1 0 2 0 4 2 3 4 3 3 5 8 12 14 11 9 8 9 9 7 8 12 10 10 12 9 2 1 2 2 5 5 6 6 5 5 6 5 4 4 4
3 2 2 2 2 2 2 1 5 7 7 8 9 8 7 9 10 6 3 2 5 3 5 7 6 3 2 4 5 6 7 5 5 4 3 4 4 2 1 2 4 4 2 1 1 0 1 1 1 4 2 4 2 4 2 4 5 7 13 18 18 12 9 10 9 8 9 10 11 10 9 10 7 1 2 2 5 6 5 6 5 3 4 6 5 5 5 5
5 3 2 3 1 2 2 1 3 6 6 6 7 8 8 8 6 5 4 1 2 1 3 6 6 3 2 4 5 5 5 6 6 5 3 3 2 3 2 2 4 5 4 3 1 1 3 3 1 3 2 3 0 5 3 3 5 7 11 13 13 10 9 9 8 9 12 9 7 7 8 8 5 3 3 2 4 5 5 4 3 2 3 4 5 5 6 6
Wind_Direction
342 347 347 350 352 347 349 350 348 348 350 347 348 349 348 346 343 343 342 341 340 337 336 334 336 338 337 336 334 330 328 324 320 314 292 294 298 264 269 285 282 245 183 169 164 159 157 183 215 186 134 55 107 156 293 256 76 59 82 118 225 222 217 211 218 288 234 255 286 283 53 87 333 319 340 329 315 270 282 282 269 266 249 244 256 267 269 218
339 349 350 356 355 348 351 347 344 343 341 339 342 342 341 342 338 336 335 334 334 331 330 329 330 332 333 335 332 331 328 322 317 306 294 301 295 252 265 271 256 209 178 172 178 178 167 199 214 173 110 56 260 101 292 281 100 104 135 157 222 212 227 247 276 314 322 282 293 306 14 54 315 299 344 287 282 284 284 278 282 283 271 262 269 275 249 208
330 344 346 352 348 344 345 337 336 334 334 333 334 334 333 335 331 329 328 327 327 325 325 323 325 326 329 330 331 334 325 322 317 300 309 95 133 208 195 127 106 188 183 173 184 196 196 221 199 168 115 207 246 120 135 284 202 173 148 186 240 224 256 288 295 307 307 291 308 313 350 360 291 289 342 275 281 281 262 260 273 279 275 269 275 279 210 200
324 327 329 337 336 333 331 329 331 331 330 330 332 331 330 330 329 327 326 326 324 323 323 322 325 325 327 329 332 332 326 330 313 257 123 120 128 141 141 97 69 160 176 169 187 219 241 268 188 163 133 232 279 103 160 222 205 176 152 193 233 222 258 273 284 302 311 335 334 305 326 324 291 289 293 284 293 280 252 241 247 262 273 269 265 277 218 194
320 319 327 334 332 328 329 331 330 332 331 331 333 330 330 330 329 329 327 327 324 324 324 324 327 326 329 332 330 326 340 1 271 207 144 137 136 141 131 82 68 172 178 178 202 219 256 294 104 114 103 227 299 66 218 218 172 188 202 208 225 222 256 267 284 300 306 328 327 319 314 294 290 316 265 268 277 267 258 241 238 249 264 267 264 281 264 206
322 326 337 340 340 331 334 337 332 335 333 333 332 330 331 330 330 331 329 328 326 325 325 326 329 328 330 332 324 319 12 329 245 189 170 171 159 165 125 81 240 187 183 186 212 207 239 303 66 93 124 203 245 216 245 230 158 217 253 227 227 226 237 263 287 294 295 293 287 287 274 268 318 300 243 232 253 259 266 254 246 252 261 271 275 280 276 254
323 333 343 345 346 336 336 338 334 336 335 334 333 331 332 333 334 331 330 328 325 325 324 326 327 325 330 331 293 20 99 245 257 238 232 233 214 228 262 253 221 189 189 186 197 194 178 166 176 186 165 236 227 216 255 280 172 207 262 255 240 238 242 275 296 303 299 262 249 267 295 289 278 281 243 236 256 263 271 265 256 260 268 279 280 271 268 266
324 334 340 339 339 334 335 334 332 334 334 334 332 332 333 332 332 329 328 326 323 323 322 324 325 322 329 264 184 10 3 250 263 260 249 242 236 256 259 238 204 194 194 193 201 195 167 179 209 198 191 244 234 242 282 339 230 214 248 251 262 275 279 300 300 297 293 266 263 288 292 269 236 261 287 264 268 270 271 275 270 265 272 278 276 271 265 264
324 331 332 326 324 328 330 328 329 330 333 334 331 332 331 327 327 327 326 324 322 320 320 323 321 313 297 172 106 12 260 249 262 258 244 236 239 250 237 221 202 197 196 206 217 211 182 199 219 200 184 229 263 293 320 31 273 249 278 286 311 297 287 301 298 286 284 274 270 273 277 270 238 263 281 261 263 268 274 284 278 275 273 268 271 268 261 263
318 325 326 316 315 320 325 326 327 330 333 333 331 331 327 324 324 324 325 324 322 318 320 323 317 298 239 176 99 214 258 257 262 249 234 223 225 222 205 199 196 200 201 218 229 233 214 207 217 179 165 226 251 281 330 99 248 288 351 324 300 293 293 293 290 282 279 272 258 244 263 271 245 171 269 261 256 267 292 292 283 285 271 258 266 276 282 278
314 320 315 310 312 316 324 326 327 332 333 333 332 329 325 324 324 325 326 324 322 320 321 323 312 247 190 150 136 220 255 261 259 247 220 195 184 179 183 185 193 205 210 230 252 266 235 187 152 129 175 297 306 304 310 271 281 328 354 336 307 309 312 290 280 277 276 269 239 207 245 275 281 179 248 262 265 281 297 288 288 286 276 279 291 296 307 298
309 308 304 307 309 314 325 326 332 337 336 336 333 329 326 323 322 323 324 323 322 321 320 325 302 204 165 140 214 236 245 241 241 225 187 179 173 174 178 184 193 206 215 229 261 36 58 118 92 106 235 24 8 312 291 255 343 322 328 333 303 323 314 281 272 265 256 249 208 160 242 284 258 231 245 257 274 295 293 284 287 283 286 326 344 324 328 353
298 297 301 306 311 321 329 329 336 338 338 338 333 330 326 322 321 321 322 321 321 319 318 323 267 191 164 252 241 240 239 232 227 216 213 227 236 216 196 194 193 203 213 213 167 59 49 67 98 138 222 89 271 285 293 332 7 319 325 53 292 337 307 272 265 261 259 239 168 142 212 270 247 250 253 260 277 297 289 279 278 281 305 4 357 359 25 37
286 288 293 299 313 323 326 331 337 337 336 335 332 329 324 321 319 318 319 318 319 318 316 313 210 169 149 256 266 256 236 229 229 231 233 233 223 201 198 201 201 206 214 211 198 47 37 44 72 87 9 124 226 309 339 345 352 305 315 100 267 301 278 278 277 270 276 272 157 151 208 258 252 263 267 273 282 285 289 284 280 291 329 0 360 38 57 49
277 279 285 292 305 314 319 330 337 335 334 332 330 325 320 316 313 313 313 313 317 317 320 315 176 152 69 277 277 267 221 214 216 215 217 207 189 172 186 194 201 205 214 220 205 53 47 54 70 83 290 271 168 332 341 341 328 282 283 304 278 199 262 296 290 258 222 277 56 144 211 263 257 268 274 280 288 297 298 287 290 317 336 350 24 61 66 48
270 270 275 282 292 304 313 325 333 333 330 329 326 320 314 309 306 305 304 308 319 319 29 93 169 157 342 276 267 221 197 196 200 196 192 193 192 169 157 157 172 179 189 214 179 142 97 84 86 136 207 303 169 138 32 0 323 291 206 244 258 222 258 303 299 291 148 121 7 208 230 270 266 270 273 280 294 305 296 288 305 343 348 20 60 66 60 47
265 262 268 276 287 299 307 321 329 328 327 326 323 316 308 304 300 292 286 299 319 276 81 26 174 189 273 252 277 242 195 189 192 191 193 192 185 163 150 135 140 143 117 81 100 131 105 101 155 147 126 219 166 119 55 334 282 292 244 225 243 238 235 274 300 316 90 118 234 253 236 245 265 278 281 286 290 287 284 291 312 342 25 64 74 65 58 51
260 262 270 279 295 302 305 318 326 329 327 323 323 317 307 306 300 277 244 257 310 293 299 328 111 189 260 237 238 203 162 173 178 185 197 185 171 168 165 141 135 125 90 43 32 105 78 56 113 108 167 215 162 132 176 227 222 239 244 239 259 254 239 252 273 290 317 285 266 277 262 256 270 278 279 276 270 272 277 286 305 353 66 80 74 69 64 57
263 267 272 287 311 309 305 318 330 334 330 322 327 323 311 317 319 264 199 219 325 224 257 231 168 179 264 247 211 155 130 154 163 176 185 172 171 180 188 154 130 119 96 52 294 151 130 67 84 132 210 212 206 194 206 219 214 222 236 240 252 259 257 255 256 265 293 304 287 275 270 274 279 278 280 276 271 274 286 306 342 62 86 85 74 72 64 60
263 258 263 316 320 312 314 331 339 341 336 331 339 339 331 5 359 340 337 231 212 231 261 234 212 241 283 289 145 148 148 157 173 196 179 169 167 168 185 135 102 83 131 155 205 194 140 136 165 192 203 211 217 215 219 227 226 231 248 256 252 252 262 263 263 273 305 318 266 259 283 296 290 291 286 283 295 311 309 5 77 91 90 83 78 73 65 65
252 237 253 322 311 310 323 345 346 345 346 343 349 358 101 108 7 310 311 287 248 249 258 254 245 246 260 261 176 165 177 193 217 201 178 170 154 149 189 144 117 227 223 160 157 164 145 180 215 213 209 215 223 224 228 239 241 241 242 250 257 248 248 256 261 275 319 349 261 291 340 307 292 294 285 286 310 324 325 85 106 101 91 82 79 75 69 69
243 221 251 298 296 307 326 350 346 345 1 10 20 54 120 109 92 153 246 296 277 259 252 259 260 253 253 255 223 178 185 241 251 226 185 165 148 176 197 139 151 210 209 131 98 145 183 223 236 226 216 223 240 242 239 247 249 253 256 254 262 259 270 287 286 298 8 41 271 312 327 292 285 276 277 293 335 6 36 85 96 91 92 84 78 78 74 69
230 214 249 277 285 302 327 350 342 349 17 34 54 71 89 44 67 147 147 268 287 269 246 248 254 254 254 251 197 158 176 222 243 241 187 162 150 198 177 161 185 206 189 169 162 170 196 230 236 234 221 225 250 258 251 257 261 254 255 261 267 271 287 285 296 326 344 266 253 296 299 286 281 270 283 336 56 72 67 78 76 75 87 84 81 80 72 71
217 219 245 266 282 304 334 348 345 19 23 45 67 62 55 7 252 170 151 264 277 269 249 232 230 243 241 196 147 148 175 204 216 235 186 168 154 172 178 182 185 199 209 198 189 192 212 220 224 230 216 207 230 256 255 253 272 259 227 219 246 261 231 229 278 331 332 320 329 9 330 297 259 263 289 52 80 81 72 80 79 73 82 86 83 76 69 72
218 224 238 255 278 306 329 339 18 74 32 146 93 48 58 350 258 176 121 317 280 286 276 227 163 112 124 100 137 155 124 198 235 221 181 177 169 151 197 199 179 207 221 212 205 211 234 240 227 233 237 205 203 242 239 208 253 291 237 213 223 238 239 240 334 14 15 336 314 48 12 295 271 270 262 108 89 69 61 74 81 79 80 83 79 75 73 70
221 227 234 242 261 293 314 320 171 140 5 190 218 353 35 326 263 183 86 5 285 280 274 152 146 162 156 116 142 123 78 295 269 167 147 162 237 147 201 241 186 206 216 216 221 223 230 232 220 224 239 217 194 238 229 169 164 279 250 206 191 193 194 162 54 46 80 249 277 69 106 270 287 278 261 120 93 78 70 70 77 79 72 75 76 78 80 75
225 232 235 243 258 268 270 232 188 221 298 199 220 285 320 295 249 213 79 7 291 223 119 304 342 133 163 170 125 114 122 251 318 23 88 74 338 109 176 244 186 209 232 119 30 255 202 191 161 152 187 183 187 241 231 160 144 237 241 136 113 123 136 154 130 175 225 245 308 302 176 250 278 256 247 112 98 91 87 80 79 82 77 77 73 67 70 72
234 238 239 247 256 242 226 219 200 202 198 199 212 286 302 273 240 213 80 334 289 106 103 291 100 109 131 98 86 109 162 195 93 318 3 70 9 64 121 237 179 257 288 126 193 266 195 168 187 145 133 169 199 234 206 146 148 237 220 129 110 132 150 176 161 207 255 327 307 263 185 228 270 262 202 117 119 128 124 115 106 99 90 88 83 72 63 57
241 242 242 241 236 224 223 231 226 211 215 217 223 250 294 291 208 79 93 235 297 71 37 337 108 104 74 70 42 110 93 40 138 265 350 63 46 72 169 226 151 278 285 155 202 261 237 191 194 144 143 204 217 241 170 145 186 233 171 105 64 91 135 152 145 143 354 329 250 235 186 195 268 291 97 122 143 160 147 132 119 110 98 91 88 85 73 61
244 242 234 215 205 208 214 226 228 222 225 226 219 216 81 48 82 91 187 222 39 60 53 48 93 158 117 101 349 181 154 109 121 43 5 41 18 23 327 244 85 77 326 1 263 250 260 249 196 147 183 197 175 169 110 143 171 121 87 59 23 7 17 35 101 103 61 287 246 226 198 185 266 294 190 174 191 163 148 138 132 115 101 95 84 83 75 67
237 230 218 206 202 196 193 216 220 209 212 208 189 158 92 57 86 157 212 204 48 229 144 76 260 162 156 154 153 164 156 166 143 114 77 68 42 20 357 356 45 51 6 339 301 278 322 331 239 230 212 149 116 117 16 37 105 95 78 71 29 339 7 29 5 47 101 251 260 241 201 180 224 267 275 314 245 148 144 147 145 133 122 115 98 91 78 66
216 213 209 205 199 190 185 190 193 192 195 178 159 105 83 51 208 194 225 5 38 209 157 189 221 182 183 152 139 170 166 172 176 160 164 151 135 185 195 186 162 52 337 259 280 320 289 233 237 285 296 137 122 141 327 358 38 84 91 97 79 318 359 16 309 30 200 246 258 239 146 172 223 258 1 355 24 106 118 131 136 133 133 126 109 99 80 68
203 201 197 193 188 186 187 177 171 178 174 157 137 56 85 192 228 187 202 241 220 201 114 113 188 153 116 89 144 178 155 184 184 174 174 154 162 221 234 225 186 144 243 218 259 328 299 294 257 201 311 173 141 154 227 295 98 136 145 143 149 166 157 256 260 258 262 267 263 244 82 238 251 333 32 18 32 83 102 109 121 126 129 128 119 104 80 68
196 192 187 184 184 189 188 172 164 165 159 148 109 68 135 212 231 175 202 228 247 14 45 54 62 37 22 162 201 158 86 262 184 163 182 156 162 227 234 241 225 190 185 200 237 209 240 302 232 177 254 181 166 188 180 149 163 182 167 145 151 163 170 209 224 216 247 276 282 285 293 219 220 17 35 42 48 74 94 104 110 110 115 119 108 93 83 75
190 186 184 183 184 188 180 164 161 161 156 137 97 148 196 216 215 172 209 234 278 32 11 6 75 62 332 294 257 171 136 252 182 130 186 177 185 217 196 208 213 195 169 184 231 191 198 260 242 207 217 161 175 220 155 113 106 228 148 122 174 193 167 191 220 186 182 280 287 265 241 190 141 89 59 72 71 76 87 98 105 107 109 108 104 101 101 94
182 182 187 190 191 190 179 168 164 161 153 125 132 210 220 215 183 177 205 223 167 121 22 332 75 109 279 287 285 278 175 227 233 89 249 219 222 227 208 213 204 187 178 180 215 217 212 258 261 30 349 175 178 216 163 135 206 229 115 174 225 189 137 130 272 212 126 253 256 202 204 31 81 111 95 91 88 94 108 115 121 129 120 113 124 133 130 128
172 179 197 206 204 194 184 180 173 162 144 130 200 225 217 209 207 196 198 141 160 132 108 301 190 187 230 249 269 262 220 288 251 157 244 254 252 216 200 240 262 189 194 189 221 227 199 267 269 160 177 230 183 156 330 351 131 126 162 222 235 29 75 97 251 304 287 250 262 239 224 216 183 214 164 134 143 150 164 155 139 137 132 141 161 161 158 153
147 133 248 232 217 198 187 188 182 170 148 169 224 235 205 204 232 201 189 225 236 188 125 205 222 195 196 209 252 244 185 219 212 171 212 250 247 215 193 205 27 334 229 152 170 256 153 276 284 220 172 253 23 79 326 331 39 129 182 234 111 73 310 9 144 215 241 245 269 274 253 230 204 194 173 182 184 175 177 167 153 161 171 174 173 171 168 145
131 104 281 228 208 196 187 184 175 173 194 201 223 234 204 212 247 226 208 204 135 153 184 217 215 213 222 201 224 242 196 195 202 190 184 210 235 239 145 147 96 346 352 104 146 250 83 190 278 309 156 194 30 63 209 281 336 47 50 339 45 155 185 218 194 178 206 237 258 271 267 254 236 195 170 181 185 174 172 171 177 188 188 186 177 172 166 142
123 105 282 185 173 174 172 167 160 187 219 218 219 223 162 225 247 241 234 216 155 179 209 214 200 217 240 226 221 231 207 206 206 201 205 212 241 292 50 97 129 329 11 57 106 88 46 181 244 314 343 93 65 207 187 191 194 76 72 282 274 209 195 262 244 163 161 217 237 254 259 254 261 199 169 177 178 168 168 170 186 198 189 184 179 169 163 149
114 104 233 170 160 157 152 148 185 202 220 248 236 209 210 242 246 250 246 224 219 233 204 193 204 216 231 239 229 206 202 230 216 208 234 233 243 256 195 128 154 173 60 46 64 129 128 185 204 280 309 209 224 220 161 144 144 134 161 195 182 174 173 264 261 210 152 208 211 232 261 266 278 278 162 164 162 162 169 173 184 194 179 171 171 164 161 153
126 184 189 162 159 155 147 154 213 195 220 231 217 211 214 225 229 224 226 216 217 223 204 203 214 214 221 232 225 197 207 233 219 215 237 231 222 222 198 193 238 127 102 99 236 212 123 112 152 247 236 216 235 237 127 132 145 138 156 181 152 155 152 194 241 239 85 282 207 202 260 266 285 306 103 132 148 161 172 175 179 180 166 164 170 164 160 166
176 192 149 158 164 162 154 193 206 204 235 223 158 235 216 215 235 212 194 205 211 206 211 217 210 212 222 221 217 216 213 218 223 225 234 236 224 226 286 314 324 61 94 134 254 336 80 97 142 270 283 284 292 332 18 56 114 121 347 340 160 177 170 183 211 188 156 268 288 299 256 230 294 326 70 101 131 158 171 168 161 162 166 173 174 169 171 182
189 174 115 167 177 182 186 206 202 208 227 233 237 239 233 234 237 223 201 200 198 191 210 223 212 213 221 213 213 218 206 217 244 236 222 222 221 56 1 342 327 133 108 195 202 187 191 135 123 136 304 304 310 333 352 7 66 127 237 258 186 153 137 141 167 156 209 224 222 239 245 223 148 131 128 112 139 182 207 180 155 161 175 183 180 178 183 189
158 169 42 173 188 206 227 201 199 209 218 227 233 234 237 243 233 217 206 208 205 190 205 226 213 200 207 210 218 223 214 221 247 247 204 207 220 35 3 348 14 141 274 295 190 136 174 182 138 156 229 250 260 250 201 41 56 140 219 241 214 172 168 172 178 218 234 220 210 227 243 267 275 214 193 195 200 225 243 221 187 184 181 180 180 183 190 195
120 187 135 153 193 226 250 212 202 219 214 215 224 228 227 235 247 203 190 212 222 204 206 230 206 195 209 209 216 232 232 225 229 249 206 186 211 320 342 22 58 109 278 337 38 81 125 194 190 194 219 238 241 214 149 113 106 259 264 254 242 222 200 192 206 219 223 268 257 243 226 249 273 264 237 194 199 227 237 209 195 198 187 182 186 190 191 192
182 194 174 161 185 221 229 222 213 221 230 216 224 235 220 222 237 219 198 210 210 202 219 247 199 201 209 205 214 232 231 223 226 238 220 181 146 315 328 71 65 41 25 30 33 80 107 259 237 203 227 251 245 216 124 105 164 232 255 263 258 249 214 191 206 216 197 268 264 256 242 233 257 266 259 203 204 242 254 218 194 186 180 177 177 178 183 192
204 210 207 177 167 210 216 209 203 214 234 231 239 269 239 217 210 215 215 208 197 196 212 238 218 212 203 191 204 218 212 219 231 224 209 184 154 230 338 16 350 15 62 39 7 87 117 246 246 177 236 268 290 6 50 89 172 218 245 267 268 264 244 205 205 219 215 236 255 264 271 265 261 269 275 251 234 240 237 220 185 158 157 156 153 164 184 203
198 268 281 327 74 226 228 195 189 209 227 228 233 249 244 232 221 226 215 174 212 219 213 219 222 215 208 192 189 204 203 207 222 217 198 183 175 180 191 297 294 31 77 73 351 86 117 245 255 136 233 273 312 30 60 67 322 261 257 260 261 265 262 232 221 229 226 240 254 261 268 267 264 263 270 266 242 196 168 142 117 122 134 135 139 159 188 200
163 237 271 2 357 264 273 190 184 201 221 222 228 236 235 235 235 239 236 169 198 244 223 212 202 187 199 192 182 213 225 202 205 218 190 171 185 187 186 200 190 82 73 95 241 318 99 177 21 88 40 293 324 62 57 29 322 295 283 268 262 267 274 263 248 243 243 249 252 255 261 264 267 259 181 225 122 100 94 93 107 131 139 131 142 179 203 209
246 280 157 75 337 250 231 204 175 190 213 216 224 230 225 231 227 226 269 200 169 196 214 199 185 154 156 163 165 214 230 185 172 188 160 163 188 179 171 179 148 132 138 155 172 356 100 153 350 65 72 283 332 80 40 342 344 307 279 268 262 258 257 256 246 233 230 237 246 251 252 257 270 8 100 91 86 97 107 110 113 139 160 156 172 209 221 219
241 279 150 118 347 264 221 207 170 194 210 198 209 222 224 232 213 188 240 288 92 232 217 159 154 140 141 176 179 192 181 141 136 142 118 98 84 75 91 133 135 137 153 165 162 121 133 145 139 111 144 276 61 122 129 24 360 292 265 256 254 245 235 241 245 235 228 223 224 233 237 243 243 190 169 157 123 132 147 148 142 170 214 210 211 222 226 221